Regional Weather Roundup
Issued by NWS

Home | Current Version | Previous Version | Text Only | Print | Product List | Glossary On
Versions: 1 2 3 4 5 6 7 8 9 10 11 12 13 14 15 16 17 18 19 20 21 22 23 24 25 26 27 28 29 30 31 32 33 34 35 36 37 38 39 40 41 42 43 44 45 46 47 48 49 50
000
ASUS46 KSTO 192315
RWRCA

NORTHERN AND CENTRAL CA REGIONAL WEATHER ROUNDUP
NATIONAL WEATHER SERVICE SACRAMENTO CA
300 PM PST THU JAN 19 2017

NOTE: FAIR INDICATES FEW OR NO CLOUDS BELOW 12,000 FEET WITH NO
SIGNIFICANT WEATHER AND/OR OBSTRUCTIONS TO VISIBILITY.

CAZ001-003-200000-
NORTHWEST AREA

CITY           SKY/WX    TMP DP  RH WIND       PRES   REMARKS
CRESCENT CITY  LGT RAIN  49  45  86 S13G23    29.69F FOG
UKIAH          PTSUNNY   51  45  79 SW5       29.78R
$$

CAZ006-505>513-200000-
BAY AREA

CITY           SKY/WX    TMP DP  RH WIND       PRES   REMARKS
SANTA ROSA     PTSUNNY   53  45  74 SW10      29.79R
SAN RAFAEL     N/A       56  MM  MM MISG
NAPA           PTSUNNY   58  48  69 SW14      29.80F
CONCORD        PTSUNNY   57  42  57 SW15      29.82S
OAKLAND CITY   N/A       57  MM  MM MISG
OAKLAND        MOSUNNY   57  48  72 W10       29.83F
SAN FRAN CITY  N/A       55  MM  71 MISG
SAN FRAN ARPT  PTSUNNY   56  45  66 W14       29.84S
LIVERMORE      PTSUNNY   51  45  79 SW6       29.82F
HAYWARD        PTSUNNY   55  46  71 SW7       29.83F
REDWOOD CITY   N/A       56  MM  69 MISG
MOFFETT ARPT   MOSUNNY   57  44  62 SW9       29.83F
SAN JOSE ARPT  PTSUNNY   56  47  71 CALM      29.84S
$$
CAZ034-037-514>518-200000-
CENTRAL COAST

CITY           SKY/WX    TMP DP  RH WIND       PRES   REMARKS
WATSONVILLE    MOSUNNY   55  51  86 S12       29.86S
SALINAS        MOSUNNY   57  46  66 W9        29.85F
MONTEREY       PTSUNNY   55  46  71 SW13      29.87F
SAN LUIS OBISP PTSUNNY   59  51  75 SW8       29.87F
SANTA MARIA    LGT RAIN  55  51  86 W3        29.90S FOG
$$
CAZ015-016-200000-
NORTHERN SACRAMENTO VALLEY

CITY           SKY/WX    TMP DP  RH WIND       PRES   REMARKS
REDDING        PTSUNNY   52  45  77 SW12      29.73F
RED BLUFF      MOSUNNY   52  45  77 S9        29.75F
OROVILLE       PTSUNNY   56  46  69 S13       29.78F
$$
CAZ016>018-200000-
SOUTHERN SACRAMENTO VALLEY

CITY           SKY/WX    TMP DP  RH WIND       PRES   REMARKS
AUBURN         CLOUDY    45  45 100 S7        29.81S
BEALE AFB      SUNNY     56  47  71 S17       29.77F
LINCOLN        MOCLDY    55  45  67 S14       29.79F
MARYSVILLE     MOSUNNY   57  46  66 S14       29.79F
SAC INTL ARPT  MOSUNNY   56  48  74 S13       29.79F
MATHER AIRPORT MOSUNNY   55  48  76 S10       29.81F
DOWNTOWN SAC   N/A       57  MM  MM MISG
SAC EXEC ARPT  SUNNY     55  48  77 S9        29.80F
VACAVILLE      MOSUNNY   56  46  69 SW14      29.81F
TRAVIS AFB     PTSUNNY   57  45  63 SW12      29.79F
$$
CAZ019>021-200000-
SAN JOAQUIN VALLEY

CITY           SKY/WX    TMP DP  RH WIND       PRES   REMARKS
STOCKTON       MOSUNNY   58  46  64 W10       29.81F
MODESTO        MOSUNNY   59  44  57 VRB7      29.82F
MERCED         PTSUNNY   54  44  69 SW8       29.84F
LEMOORE        RAIN      54  47  77 NE12      29.86F
FRESNO         CLOUDY    57  41  55 E3        29.86F
HANFORD        CLOUDY    58  43  57 E7        29.87F
PORTERVILLE    MOSUNNY   56  45  66 SE6       29.88
BAKERSFIELD    CLOUDY    58  42  55 SW5       29.87F
$$
CAZ011-012-071-200000-
NORTHERN MOUNTAINS

CITY           SKY/WX    TMP DP  RH WIND       PRES   REMARKS
YREKA          MOSUNNY   44  34  67 SW7       29.64F
MOUNT SHASTA   PTSUNNY   36  33  89 VRB6      29.66F WCI  31
ALTURAS        PTSUNNY   38  29  70 W12       29.65F WCI  30
$$
CAZ011-012-071-200000-
SIERRA NEVADA MTNS

CITY           SKY/WX    TMP DP  RH WIND       PRES   REMARKS
BLUE CANYON    CLOUDY    30  30 100 S8        29.74F WCI  22
TRUCKEE        LGT SNOW  30  27  86 SW8       29.72S WCI  23
TAHOE VLY ARPT CLOUDY    30  23  75 S14G20    29.71S HAZE    WCI  19
MAMMOTH LAKES  CLOUDY    29  20  70 NW13      29.73F WCI  19
$$



USA.gov is the U.S. government's official web portal to all federal, state and local government web resources and services.